Theta_e
314 315 314 311 311 310 309 308 308 307 306 306 306 306 306 305 305 305 304 304 304 303
312 313 312 312 311 311 309 308 308 307 306 305 305 305 305 304 304 304 304 304 304 302
310 311 311 312 310 309 309 308 307 306 305 305 305 304 304 304 304 303 304 303 302 302
309 309 310 309 309 309 308 307 306 305 305 304 304 303 303 303 303 302 302 302 302 301
308 308 308 308 308 308 307 307 305 305 304 303 303 303 302 302 301 301 301 301 301 300
306 306 306 307 308 307 306 306 305 304 303 302 303 302 302 302 301 300 301 301 300 299
305 306 306 307 307 306 306 304 304 303 303 303 302 302 302 301 301 300 301 300 300 300
305 306 305 306 306 306 305 304 304 303 302 303 302 301 301 301 301 301 300 300 301 302
303 304 304 305 305 305 304 304 303 302 301 301 300 305 305 303 301 300 300 300 301 302
303 303 303 304 304 305 304 303 302 301 301 301 301 303 304 303 301 301 301 301 301 301
302 302 303 303 304 303 303 303 302 301 301 301 301 303 305 304 302 301 302 301 301 301
302 301 301 302 303 303 303 302 301 301 300 300 300 303 304 303 301 300 301 301 301 301
302 301 302 302 303 304 304 302 302 300 300 302 300 303 303 302 300 299 299 300 301 301
301 301 302 302 303 303 302 301 300 299 300 300 300 301 303 303 300 299 298 299 299 301
Wind_Speed
24 15 15 19 14 13 14 14 18 18 16 16 15 13 12 9 9 9 8 9 8 6
22 23 19 21 19 15 16 14 18 19 17 17 16 15 13 9 11 10 9 9 9 8
21 22 20 18 20 19 18 18 19 19 18 17 16 15 14 11 11 10 8 7 9 9
18 20 20 19 19 18 19 19 19 19 19 18 17 16 14 13 11 11 10 9 9 10
17 19 20 20 20 19 19 19 19 19 18 18 17 16 15 14 11 11 11 10 10 11
16 18 20 21 20 20 20 19 19 18 19 18 17 16 15 13 12 11 10 9 10 11
16 17 18 19 20 21 20 20 19 19 18 17 16 15 14 12 12 11 9 9 10 11
15 16 17 19 20 20 21 19 19 19 17 16 15 12 14 13 12 11 10 10 10 10
14 15 17 19 21 20 20 20 20 19 18 17 12 16 17 13 11 10 10 10 9 10
14 16 17 19 20 19 20 21 20 19 18 17 15 19 20 17 10 9 9 9 8 8
16 16 17 19 20 20 19 20 18 18 18 16 13 19 19 18 12 10 10 9 9 9
17 15 18 19 20 19 18 17 18 17 17 16 13 20 19 15 11 10 9 8 9 9
15 17 20 19 18 17 17 18 14 16 16 17 14 20 19 16 8 9 7 8 8 10
16 18 20 17 17 17 18 17 17 16 15 15 14 15 19 18 10 7 6 6 6 6
Wind_Direction
218 215 199 195 187 184 184 185 187 190 194 193 190 192 195 198 206 208 217 230 238 251
218 213 204 197 192 185 184 183 185 187 190 191 191 193 195 202 203 208 220 224 236 247
225 216 210 203 194 186 181 181 179 184 187 189 190 194 194 203 212 213 216 231 239 250
224 220 212 207 200 188 179 178 179 183 185 187 191 194 196 206 208 216 225 228 242 256
225 216 212 207 201 187 180 179 180 182 185 187 193 195 200 206 208 216 226 234 244 259
224 217 214 207 199 190 180 178 181 182 187 188 191 196 201 207 212 220 230 239 255 264
230 217 217 208 198 190 180 178 182 184 187 188 189 195 199 205 214 220 230 247 253 263
243 225 211 211 200 189 183 179 180 182 185 187 190 191 194 200 211 221 234 241 252 255
253 229 215 206 201 190 181 178 179 183 183 185 190 182 188 199 208 220 235 249 257 263
252 238 220 205 203 192 181 176 179 181 181 184 189 182 189 195 215 224 238 249 261 270
253 234 224 210 198 193 184 177 177 180 181 183 186 183 189 196 219 232 240 253 260 270
241 227 223 211 199 186 185 177 177 178 180 181 179 183 190 197 218 231 243 250 256 268
256 227 218 203 196 184 176 174 170 175 180 181 179 182 190 201 222 231 241 247 258 242
229 219 212 194 192 179 171 165 171 171 179 175 183 177 192 199 224 234 245 257 267 265